Back to catalog

CZ-4C DEB

AliveLEO
NORAD 45483·DEBRIS·🇨🇳 China

Launched Apr 10, 2018 from Jiuquan Satellite Launch Center

Loading…

Next Passes (next 24 hours)

TLE

AgingSource: Space-Track

Epoch: Sep 12, 2026, 05:50 UTC

1 45483U 18034L   26255.24333095 -.00000029  00000-0  83895-4 0  9998
2 45483  63.3948 245.4463 0277886   7.3141 353.1811 13.44350898376217

Track CZ-4C DEB in real time with AllMySat

Download on the App Store